Starlink 11307

operational
NORAD ID: 61210 Int'l Des: 2024-171 Owner: SPXS Country: US Constellation: starlink
LEOCIRCULAR

About Starlink 11307

Description loading...

Live Position

Loading 3D Globe...

Upcoming Passes

Altitude History

Altitude vs Time

uPlot chart will show altitude changes over time

Two-Line Element Set

1 61210U 24171L 25302.84797935 -.00000586 00000-0 12684-7 0 9997
2 61210 53.1597 101.6255 0000651 84.3929 275.7163 15.69705958 63846
Epoch: Oct 29, 2025 • Age: 42 hours

Current Status

Altitude 365.2 km
Velocity 7.70 km/s
Sub-Earth Point 50.57°N, 42.88°W
Launch Date Sep 20, 2024
Age 1.1 years
Type internet

Technical Details

Classification Payload
Mass 960.00 kg
Dry Mass 910.00 kg
Total Mass 960.00 kg
Length 0.30 m
Diameter 4.10 m
Span 29.00 m
Shape Box + pan
Manufacturer SPXS
Bus Type Starlink V2MD
Phase Status In Orbit
Owner/State SPXS/US

Large Constellations

Loading constellations...